Flag for United Kingdom Weather past 2 weeks in Peterborough, England, United Kingdom

Now
54 °F

Overcast.


Feels Like: 50 °F
Forecast: 48 / 59 °F
Wind: 12 mph from Northwest

Location: Wittering

Current Time: Sep 4, 2015 at 2:54:46 AM

Latest Report: Sep 4, 2015 at 1:50 AM


Visibility: N/A

Pressure: 29.98 "Hg

Humidity: 77%

Dew point: 46 °F

Location of PeterboroughLocation

Historic Weather in Peterborough — Graph

°F

Peterborough temperature yesterday

Maximum temperature yesterday: 59 °F (at 2:50 PM)
Minimum temperature yesterday: 48 °F (at 3:50 AM)
Average temperature yesterday: 54 °F

Past Weeks' High & Low Weather Summary

 TemperatureHumidityPressure
High84 °F (Aug 22, 2:50 PM)100% (Aug 20, 12:50 AM)30.12 "Hg (Aug 20, 12:50 AM)
Low46 °F (Sep 2, 5:50 AM)39% (Aug 23, 11:50 AM)29.47 "Hg (Aug 24, 1:50 PM)
Average60 °F80%29.88 "Hg
* Reported Aug 20 12:50 AM — Sep 4 12:50 AM, Peterborough, Weather by CustomWeather, © 2015

Note: Actual official high and low records may vary slightly from our data, if they occured in-between our weather recording intervals... More about our weather records

Advertising

Peterborough weather history for previous 24 hours

 ConditionsComfort  
Time TempWeatherWind HumidityBarometerVisibility
12:50 AM
Fri, Sep 4
54 °FOvercast.9 mph77%29.98 "HgN/A
11:50 PM
Thu, Sep 3
52 °FPassing clouds.8 mph82%30.01 "HgN/A
10:50 PM54 °FPassing clouds.8 mph72%29.98 "HgN/A
9:50 PM54 °FPartly cloudy.8 mph77%30.01 "HgN/A
8:50 PM54 °FMostly cloudy.10 mph72%29.98 "HgN/A
7:50 PM54 °FMostly cloudy.8 mph72%29.98 "HgN/A
6:50 PM57 °FOvercast.8 mph59%29.98 "HgN/A
5:50 PM57 °FOvercast.8 mph59%29.98 "HgN/A
4:50 PM57 °FPartly sunny.10 mph55%29.98 "HgN/A
3:50 PM57 °FPartly sunny.7 mph59%29.95 "HgN/A
2:50 PM59 °FBroken clouds.8 mph55%29.95 "HgN/A
1:50 PM57 °FPartly sunny.9 mph59%29.95 "HgN/A
12:50 PM57 °FBroken clouds.12 mph59%29.95 "HgN/A
11:50 AM57 °FBroken clouds.9 mph63%29.95 "HgN/A
10:50 AM57 °FBroken clouds.10 mph63%29.95 "HgN/A
9:50 AM55 °FScattered clouds.8 mph72%29.95 "HgN/A
8:50 AM54 °FPartly sunny.8 mph77%29.95 "HgN/A
7:50 AM52 °FPartly sunny.8 mph88%29.95 "HgN/A
6:50 AM50 °FPassing clouds.8 mph94%29.95 "HgN/A
5:50 AM48 °FPartly cloudy.9 mph100%29.95 "HgN/A
4:50 AM48 °FOvercast.8 mph94%29.95 "HgN/A
3:50 AM48 °FPassing clouds.9 mph94%29.95 "HgN/A
2:50 AM50 °FPartly cloudy.9 mph94%29.98 "HgN/A
Weather by CustomWeather, © 2015

See weather overviewHow to use our weather pages